sat.trackr.live / text

‹ back to catalog

STARLINK-2190

NORAD 48564 · 2021-041M

PAYLOAD ACTIVE UNKNOWN

§ Identity

Operator
Country
US
Launch date
2021-05-15
Launch site
AFETR
Launch vehicle
Mass (kg)
RCS (m²)

Purposes: comms

External: N2YO · Heavens-Above · Gunter

§ Orbital elements

Epoch: 2026-09-19T19:28:55.224192Z

Period
94.01 min
Inclination
53.1601°
Eccentricity
0.0000746
Mean motion
15.31712647 rev/d
Perigee alt
470.2 km
Apogee alt
471.2 km
Semi-major
6,848.8 km
B*
5.6424e-5
RAAN
303.3007°
Arg perigee
61.6762°
Mean anomaly
298.4315°
Rev number
29,502

§ Raw data

STARLINK-21901 48564U 21041M   26262.81175028  .00001387  00000+0  56424-4 0  99982 48564  53.1601 303.3007 0000746  61.6762 298.4315 15.31712647295023

JSON: /api/v1/satellites/48564 · /tle

For live sub-satellite position, see the globe view (requires WebGL).

§ Visibility from observer

Set your observer location to see the next 7 days of passes ≥ 10°. The values pass through the URL so the page stays shareable.

No JS? Fill the form by hand. The geolocation button needs JavaScript.